FW6974 Weather Reports


time (UTC)temp
C
wind
direction
speed
KPH
gust
KPH
rain 1hr
cm
rain 24hr
cm
rain mn
cm
humidity
%
barometer
mb
20260508220704 20 4 6.4 6.4 0.00 0.00 0.00 44 1010.1
20260508220201 20 328 4.8 8.0 0.00 0.00 0.00 45 1010.1
20260508215657 20 313 4.8 11.3 0.00 0.00 0.00 44 1010.4
20260508215154 20 299 3.2 14.5 0.00 0.00 0.00 42 1010.5
20260508214651 21 325 6.4 11.3 0.00 0.00 0.00 42 1010.3
20260508214149 21 15 3.2 11.3 0.00 0.00 0.00 43 1010.4
20260508213645 21 18 6.4 8.0 0.00 0.00 0.00 43 1010.3
20260508213141 21 0 6.4 9.7 0.00 0.00 0.00 42 1010.2
20260508212638 21 1 8.0 9.7 0.00 0.00 0.00 42 1010.3
20260508212135 21 0 3.2 4.8 0.00 0.00 0.00 44 1010.4
20260508211634 20 357 3.2 8.0 0.00 0.00 0.00 43 1010.6
20260508211131 21 10 4.8 6.4 0.00 0.00 0.00 43 1010.6
20260508210628 21 309 9.7 11.3 0.00 0.00 0.00 44 1010.7
20260508210126 21 337 1.6 9.7 0.00 0.00 0.00 43 1010.8
20260508205623 21 302 3.2 6.4 0.00 0.00 0.00 40 1010.7
20260508205119 21 7 6.4 9.7 0.00 0.00 0.00 41 1010.8
20260508204615 21 336 8.0 8.0 0.00 0.00 0.00 42 1010.8
20260508204111 21 55 3.2 4.8 0.00 0.00 0.00 41 1011.1
20260508203608 21 357 3.2 6.4 0.00 0.00 0.00 42 1011.0
20260508203104 22 346 3.2 8.0 0.00 0.00 0.00 39 1011.0
20260508202600 21 295 3.2 6.4 0.00 0.00 0.00 41 1011.3
20260508202058 21 357 6.4 6.4 0.00 0.00 0.00 43 1011.1
20260508201554 21 323 4.8 8.0 0.00 0.00 0.00 42 1011.2
20260508201051 21 342 4.8 8.0 0.00 0.00 0.00 41 1011.2
20260508200548 21 348 3.2 4.8 0.00 0.00 0.00 42 1011.5
20260508200043 21 156 0.0 3.2 0.00 0.00 0.00 43 1011.5
20260508195540 21 271 3.2 8.0 0.00 0.00 0.00 41 1011.6
20260508195036 21 184 3.2 8.0 0.00 0.00 0.00 41 1011.6
20260508194534 21 285 3.2 6.4 0.00 0.00 0.00 42 1011.6
20260508194031 21 24 3.2 6.4 0.00 0.00 0.00 41 1011.7
20260508193527 22 298 1.6 9.7 0.00 0.00 0.00 39 1011.7
20260508193024 23 165 3.2 6.4 0.00 0.00 0.00 38 1011.5
20260508192521 22 157 0.0 6.4 0.00 0.00 0.00 39 1011.6
20260508192018 22 32 3.2 8.0 0.00 0.00 0.00 39 1011.8
20260508191515 22 12 6.4 6.4 0.00 0.00 0.00 41 1011.9
20260508191011 21 11 3.2 11.3 0.00 0.00 0.00 43 1012.1
20260508190509 22 358 8.0 9.7 0.00 0.00 0.00 39 1011.9
20260508190004 22 29 8.0 9.7 0.00 0.00 0.00 40 1012.0
20260508185502 22 2 4.8 8.0 0.00 0.00 0.00 38 1012.0
20260508185000 22 337 3.2 6.4 0.00 0.00 0.00 42 1012.2
20260508184457 22 22 0.0 8.0 0.00 0.00 0.00 42 1012.3
20260508183953 21 30 3.2 8.0 0.00 0.00 0.00 39 1012.7
20260508183450 21 336 4.8 8.0 0.00 0.00 0.00 38 1012.5
20260508182945 21 348 6.4 8.0 0.00 0.00 0.00 40 1012.5
20260508182443 22 266 4.8 8.0 0.00 0.00 0.00 39 1012.8
20260508181938 21 12 3.2 11.3 0.00 0.00 0.00 40 1012.8
20260508181435 21 328 6.4 8.0 0.00 0.00 0.00 41 1012.8
20260508180933 21 17 4.8 9.7 0.00 0.00 0.00 40 1012.7
20260508180429 20 336 3.2 8.0 0.00 0.00 0.00 39 1013.1
20260508175925 21 276 3.2 8.0 0.00 0.00 0.00 42 1013.0
20260508175422 20 333 3.2 4.8 0.00 0.00 0.00 43 1013.1
20260508174920 20 353 6.4 11.3 0.00 0.00 0.00 41 1013.2
20260508174417 21 19 6.4 6.4 0.00 0.00 0.00 43 1013.0
20260508173913 21 291 11.3 14.5 0.00 0.00 0.00 41 1013.3
20260508173411 21 11 4.8 9.7 0.00 0.00 0.00 41 1013.5
20260508172906 21 28 3.2 11.3 0.00 0.00 0.00 42 1013.6
20260508172405 21 8 6.4 14.5 0.00 0.00 0.00 42 1013.7
20260508171900 21 221 3.2 8.0 0.00 0.00 0.00 46 1013.8
20260508171356 21 306 3.2 9.7 0.00 0.00 0.00 45 1013.8
20260508170853 21 21 1.6 8.0 0.00 0.00 0.00 46 1013.7
20260508170351 21 1 4.8 9.7 0.00 0.00 0.00 44 1013.9
20260508165847 21 351 3.2 4.8 0.00 0.00 0.00 44 1014.2
20260508165345 21 15 0.0 4.8 0.00 0.00 0.00 47 1014.1
20260508164841 21 290 8.0 8.0 0.00 0.00 0.00 45 1014.5
20260508164338 21 306 1.6 8.0 0.00 0.00 0.00 43 1014.5
20260508163836 20 335 4.8 6.4 0.00 0.00 0.00 48 1014.7
20260508163333 20 348 6.4 11.3 0.00 0.00 0.00 47 1014.6
20260508162823 20 294 1.6 8.0 0.00 0.00 0.00 45 1014.9
20260508162320 20 330 0.0 9.7 0.00 0.00 0.00 45 1015.0
20260508161818 20 3 8.0 9.7 0.00 0.00 0.00 45 1014.8
20260508161314 20 31 0.0 8.0 0.00 0.00 0.00 44 1014.9
20260508160812 20 18 3.2 12.9 0.00 0.00 0.00 45 1015.0
20260508160310 20 1 3.2 6.4 0.00 0.00 0.00 44 1015.1
20260508155806 20 0 6.4 8.0 0.00 0.00 0.00 44 1015.1
20260508155306 20 348 3.2 9.7 0.00 0.00 0.00 47 1015.1
20260508154800 20 354 6.4 8.0 0.00 0.00 0.00 46 1015.2
20260508154258 20 279 6.4 8.0 0.00 0.00 0.00 44 1015.3
20260508153754 19 21 3.2 9.7 0.00 0.00 0.00 44 1015.3
20260508153252 19 25 3.2 16.1 0.00 0.00 0.00 47 1015.5
20260508152748 20 322 0.0 9.7 0.00 0.00 0.00 49 1015.5
20260508152244 19 14 3.2 6.4 0.00 0.00 0.00 47 1015.7
20260508151740 18 356 4.8 8.0 0.00 0.00 0.00 46 1015.5
20260508151237 18 329 6.4 8.0 0.00 0.00 0.00 46 1015.7
20260508150734 19 4 4.8 8.0 0.00 0.00 0.00 47 1015.7
20260508150231 18 201 3.2 8.0 0.00 0.00 0.00 48 1015.7
20260508145726 18 336 6.4 8.0 0.00 0.00 0.00 45 1015.5
20260508145223 18 27 3.2 6.4 0.00 0.00 0.00 47 1015.7
20260508144720 18 262 4.8 9.7 0.00 0.00 0.00 47 1015.7
20260508144218 18 305 3.2 14.5 0.00 0.00 0.00 49 1015.7
20260508143715 18 339 3.2 6.4 0.00 0.00 0.00 45 1015.9
20260508143212 17 26 3.2 8.0 0.00 0.00 0.00 46 1015.6
20260508142708 17 357 3.2 6.4 0.00 0.00 0.00 48 1015.7
20260508142205 17 0 6.4 8.0 0.00 0.00 0.00 47 1015.7
20260508141701 17 4 4.8 11.3 0.00 0.00 0.00 47 1015.8
20260508141159 17 327 6.4 6.4 0.00 0.00 0.00 49 1015.8
20260508140656 17 320 6.4 9.7 0.00 0.00 0.00 47 1016.0
20260508140153 16 346 4.8 9.7 0.00 0.00 0.00 48 1015.9
20260508135649 16 8 6.4 9.7 0.00 0.00 0.00 47 1015.8
20260508135144 16 5 6.4 8.0 0.00 0.00 0.00 48 1016.0
20260508134641 17 308 3.2 4.8 0.00 0.00 0.00 48 1016.0
20260508134138 16 347 0.0 8.0 0.00 0.00 0.00 50 1016.2
20260508133635 16 246 4.8 8.0 0.00 0.00 0.00 48 1016.0
20260508133132 16 191 3.2 8.0 0.00 0.00 0.00 50 1016.1
20260508132630 16 348 4.8 6.4 0.00 0.00 0.00 48 1015.8
20260508132127 15 311 3.2 11.3 0.00 0.00 0.00 51 1016.1
20260508131622 15 358 6.4 9.7 0.00 0.00 0.00 50 1015.9
20260508131119 15 358 3.2 6.4 0.00 0.00 0.00 51 1015.8
20260508130616 15 246 4.8 8.0 0.00 0.00 0.00 51 1015.9
20260508130113 14 276 4.8 6.4 0.00 0.00 0.00 53 1016.0
20260508125614 14 268 3.2 6.4 0.00 0.00 0.00 53 1015.9
20260508125112 13 274 3.2 8.0 0.00 0.00 0.00 54 1015.7
20260508124610 13 272 3.2 8.0 0.00 0.00 0.00 56 1015.8
20260508124106 13 300 4.8 6.4 0.00 0.00 0.00 57 1015.9
20260508123605 13 351 3.2 6.4 0.00 0.00 0.00 57 1016.0
20260508123102 12 341 4.8 6.4 0.00 0.00 0.00 58 1015.9
20260508122558 12 301 6.4 6.4 0.00 0.00 0.00 61 1015.8
20260508122055 11 308 3.2 4.8 0.00 0.00 0.00 63 1015.8
20260508121554 11 327 3.2 6.4 0.00 0.00 0.00 65 1015.7
20260508121051 10 344 3.2 4.8 0.00 0.00 0.00 67 1015.9
20260508120548 9 287 1.6 6.4 0.00 0.00 0.00 70 1015.8
20260508120047 9 347 3.2 6.4 0.00 0.00 0.00 71 1015.8
20260508115544 9 297 3.2 4.8 0.00 0.00 0.00 69 1015.7
20260508115040 8 322 1.6 4.8 0.00 0.00 0.00 72 1015.6
20260508114537 7 276 0.0 6.4 0.00 0.00 0.00 76 1015.6
20260508114033 7 303 3.2 4.8 0.00 0.00 0.00 80 1015.7
20260508113531 6 303 3.2 4.8 0.00 0.00 0.00 80 1015.5
20260508113029 6 315 1.6 6.4 0.00 0.00 0.00 81 1015.7
20260508112525 6 301 3.2 4.8 0.00 0.00 0.00 82 1015.4
20260508112022 5 310 3.2 4.8 0.00 0.00 0.00 83 1015.5
20260508111519 5 295 1.6 4.8 0.00 0.00 0.00 85 1015.6
20260508111015 5 286 3.2 3.2 0.00 0.00 0.00 86 1015.4
20260508110514 5 305 3.2 3.2 0.00 0.00 0.00 86 1015.4
20260508110009 5 282 3.2 4.8 0.00 0.00 0.00 87 1015.3
20260508105505 5 276 3.2 4.8 0.00 0.00 0.00 88 1015.3
20260508105002 5 293 1.6 4.8 0.00 0.00 0.00 89 1015.3
20260508104500 5 280 4.8 4.8 0.00 0.00 0.00 90 1015.2
20260508103955 5 267 3.2 3.2 0.00 0.00 0.00 91 1015.3
20260508103453 5 273 3.2 3.2 0.00 0.00 0.00 93 1015.5
20260508102949 4 283 1.6 4.8 0.00 0.00 0.00 94 1015.2
20260508102448 4 282 3.2 3.2 0.00 0.00 0.00 94 1015.5
20260508101945 3 275 1.6 3.2 0.00 0.00 0.00 94 1015.3
20260508101443 3 293 1.6 3.2 0.00 0.00 0.00 94 1015.3
20260508100940 3 258 1.6 3.2 0.00 0.00 0.00 93 1015.4
20260508100438 3 254 0.0 3.2 0.00 0.00 0.00 94 1015.4
20260508095934 3 278 3.2 3.2 0.00 0.00 0.00 93 1015.2
20260508095432 3 299 3.2 3.2 0.00 0.00 0.00 93 1015.6
20260508094928 3 300 0.0 4.8 0.00 0.00 0.00 93 1015.1
20260508094425 3 286 3.2 3.2 0.00 0.00 0.00 93 1015.2
20260508093922 3 285 1.6 3.2 0.00 0.00 0.00 92 1015.3
20260508093420 3 276 1.6 3.2 0.00 0.00 0.00 92 1015.3
20260508092917 3 279 0.0 3.2 0.00 0.00 0.00 91 1015.2
20260508092415 3 275 3.2 3.2 0.00 0.00 0.00 91 1015.3
20260508091913 3 274 1.6 4.8 0.00 0.00 0.00 91 1015.2
20260508091409 4 262 3.2 3.2 0.00 0.00 0.00 90 1015.2
20260508090907 4 285 0.0 3.2 0.00 0.00 0.00 89 1015.1
20260508090405 3 309 1.6 3.2 0.00 0.00 0.00 89 1015.2
20260508085900 4 261 1.6 3.2 0.00 0.00 0.00 89 1015.1
20260508085357 4 267 1.6 3.2 0.00 0.00 0.00 88 1015.0
20260508084854 4 292 3.2 3.2 0.00 0.00 0.00 88 1015.0
20260508084350 5 301 3.2 4.8 0.00 0.00 0.00 87 1015.2
20260508083848 5 301 1.6 3.2 0.00 0.00 0.00 85 1015.1
20260508083346 5 298 1.6 3.2 0.00 0.00 0.00 84 1015.1
20260508082845 5 256 1.6 3.2 0.00 0.00 0.00 82 1015.2
20260508082343 5 318 1.6 3.2 0.00 0.00 0.00 83 1015.3
20260508081840 5 299 1.6 3.2 0.00 0.00 0.00 83 1015.0
20260508081337 5 276 3.2 3.2 0.00 0.00 0.00 83 1015.1
20260508080834 5 294 3.2 3.2 0.00 0.00 0.00 83 1015.1
20260508080332 5 275 1.6 3.2 0.00 0.00 0.00 82 1015.1
20260508075828 5 267 3.2 3.2 0.00 0.00 0.00 81 1015.0
20260508075325 5 298 3.2 3.2 0.00 0.00 0.00 81 1015.0
20260508074823 5 294 3.2 3.2 0.00 0.00 0.00 79 1014.9
20260508074320 6 238 0.0 3.2 0.00 0.00 0.00 80 1015.0
20260508073817 6 249 1.6 3.2 0.00 0.00 0.00 81 1014.9
20260508073315 6 257 1.6 3.2 0.00 0.00 0.00 81 1014.8
20260508072811 5 242 0.0 3.2 0.00 0.00 0.00 82 1014.8
20260508072308 5 292 0.0 3.2 0.00 0.00 0.00 81 1014.9
20260508071805 5 301 0.0 3.2 0.00 0.00 0.00 81 1015.1
20260508071303 5 265 1.6 3.2 0.00 0.00 0.00 80 1015.0
20260508070800 5 244 0.0 3.2 0.00 0.00 0.00 81 1015.1
20260508070259 5 252 1.6 3.2 0.00 0.00 0.00 82 1015.2
20260508065756 5 297 3.2 3.2 0.00 0.00 0.00 81 1015.3
20260508065254 5 285 0.0 3.2 0.00 0.00 0.00 82 1015.6
20260508064752 5 303 3.2 4.8 0.00 0.00 0.00 83 1015.4
20260508064249 5 290 0.0 3.2 0.00 0.00 0.00 83 1015.6
20260508063746 5 300 3.2 3.2 0.00 0.00 0.00 82 1015.6
20260508063244 5 261 1.6 3.2 0.00 0.00 0.00 80 1015.8
20260508062741 6 278 0.0 3.2 0.00 0.00 0.00 79 1015.7
20260508062239 6 285 3.2 4.8 0.00 0.00 0.00 79 1015.8
20260508061735 6 254 1.6 3.2 0.00 0.00 0.00 80 1015.9
20260508061233 6 264 1.6 3.2 0.00 0.00 0.00 79 1015.8
20260508060729 6 276 0.0 3.2 0.00 0.00 0.00 77 1015.7
20260508060227 6 246 1.6 3.2 0.00 0.00 0.00 78 1015.8
20260508055722 6 245 0.0 4.8 0.00 0.00 0.00 81 1015.9
20260508055220 6 235 1.6 3.2 0.00 0.00 0.00 82 1015.9
20260508054716 6 228 0.0 3.2 0.00 0.00 0.00 85 1015.8
20260508054214 5 286 0.0 3.2 0.00 0.00 0.00 86 1015.8
20260508053710 5 281 1.6 3.2 0.00 0.00 0.00 88 1015.8
20260508053208 5 273 3.2 4.8 0.00 0.00 0.00 91 1015.7
20260508052705 5 309 0.0 3.2 0.00 0.00 0.00 94 1015.6
20260508052202 5 278 0.0 3.2 0.00 0.00 0.00 94 1015.7
20260508051658 5 267 0.0 4.8 0.00 0.00 0.00 94 1015.5
20260508051154 5 263 0.0 4.8 0.00 0.00 0.00 94 1015.3
20260508050650 5 319 1.6 3.2 0.00 0.00 0.00 94 1015.5
20260508050148 5 269 0.0 4.8 0.00 0.00 0.00 94 1015.7
20260508045643 5 274 0.0 4.8 0.00 0.00 0.00 94 1015.7
20260508045142 5 281 0.0 4.8 0.00 0.00 0.00 94 1015.6
20260508044638 5 285 0.0 3.2 0.00 0.00 0.00 94 1015.9
20260508044135 5 292 0.0 4.8 0.00 0.00 0.00 94 1015.8
20260508043631 5 279 3.2 3.2 0.00 0.00 0.00 94 1015.7
20260508043129 5 281 3.2 3.2 0.00 0.00 0.00 94 1015.9
20260508042625 5 269 0.0 4.8 0.00 0.00 0.00 94 1015.7
20260508042123 5 276 1.6 3.2 0.00 0.00 0.00 94 1015.5
20260508041619 5 279 0.0 4.8 0.00 0.00 0.00 94 1015.6
20260508041116 5 294 1.6 4.8 0.00 0.00 0.00 94 1015.6
20260508040612 5 262 1.6 4.8 0.00 0.00 0.00 94 1015.8
20260508040110 5 310 0.0 3.2 0.00 0.00 0.00 94 1015.8
20260508035607 5 294 0.0 3.2 0.00 0.00 0.00 94 1015.8
20260508035104 5 272 1.6 3.2 0.00 0.00 0.00 94 1015.7
20260508034601 5 285 0.0 3.2 0.00 0.00 0.00 94 1016.0
20260508034058 5 277 0.0 3.2 0.00 0.00 0.00 93 1015.8
20260508033555 5 273 0.0 4.8 0.00 0.00 0.00 93 1015.5
20260508033054 5 317 0.0 3.2 0.00 0.00 0.00 93 1015.6
20260508032549 5 264 1.6 3.2 0.00 0.00 0.00 93 1015.7
20260508032048 5 275 1.6 4.8 0.00 0.00 0.00 92 1015.7
20260508031544 5 302 3.2 3.2 0.00 0.00 0.00 92 1015.7
20260508031040 5 285 1.6 4.8 0.00 0.00 0.00 92 1016.0
20260508030537 5 280 0.0 3.2 0.00 0.00 0.00 92 1015.7
20260508030035 5 268 1.6 3.2 0.00 0.00 0.00 92 1015.7
20260508025530 5 299 3.2 3.2 0.00 0.00 0.00 91 1015.9
20260508025028 5 301 1.6 3.2 0.00 0.00 0.00 91 1015.6
20260508024524 5 310 1.6 4.8 0.00 0.00 0.00 90 1015.7
20260508024021 5 280 3.2 3.2 0.00 0.00 0.00 89 1015.8
20260508023517 6 290 1.6 3.2 0.00 0.00 0.00 88 1015.5
20260508023015 6 281 0.0 3.2 0.00 0.00 0.00 88 1015.5
20260508022510 6 279 1.6 3.2 0.00 0.00 0.00 87 1015.6
20260508022008 6 299 1.6 4.8 0.00 0.00 0.00 86 1015.6
20260508021503 6 282 1.6 3.2 0.00 0.00 0.00 85 1015.6
20260508020959 6 328 0.0 3.2 0.00 0.00 0.00 85 1015.6
20260508020457 6 297 3.2 3.2 0.00 0.00 0.00 83 1015.8
20260508015954 6 278 1.6 3.2 0.00 0.00 0.00 81 1015.6
20260508015452 7 256 0.0 3.2 0.00 0.00 0.00 81 1015.7
20260508014949 7 285 1.6 3.2 0.00 0.00 0.00 79 1015.4
20260508014445 7 282 3.2 3.2 0.00 0.00 0.00 77 1015.5
20260508013941 7 273 1.6 3.2 0.00 0.00 0.00 76 1015.4
20260508013437 7 287 3.2 4.8 0.00 0.00 0.00 75 1015.5
20260508012935 7 289 3.2 3.2 0.00 0.00 0.00 73 1015.4
20260508012432 8 280 1.6 3.2 0.00 0.00 0.00 71 1015.4
20260508011929 8 292 1.6 3.2 0.00 0.00 0.00 70 1015.4
20260508011427 8 269 0.0 3.2 0.00 0.00 0.00 67 1015.3
20260508010924 8 326 1.6 3.2 0.00 0.00 0.00 65 1015.2
20260508010421 9 271 0.0 3.2 0.00 0.00 0.00 60 1015.4
20260508005918 9 308 0.0 3.2 0.00 0.00 0.00 61 1015.2
20260508005415 10 268 0.0 3.2 0.00 0.00 0.00 58 1015.3
20260508004911 10 297 0.0 3.2 0.00 0.00 0.00 59 1015.3
20260508004408 10 264 0.0 3.2 0.00 0.00 0.00 58 1015.2
20260508003904 11 298 3.2 3.2 0.00 0.00 0.00 59 1015.1
20260508003401 11 238 1.6 3.2 0.00 0.00 0.00 56 1015.2
20260508002858 11 227 3.2 3.2 0.00 0.00 0.00 58 1015.1
20260508002355 11 221 3.2 3.2 0.00 0.00 0.00 61 1015.1
20260508001851 11 236 1.6 3.2 0.00 0.00 0.00 57 1015.0
20260508001347 12 237 0.0 3.2 0.00 0.00 0.00 54 1015.1
20260508000844 12 279 1.6 3.2 0.00 0.00 0.00 58 1014.9
20260508000342 12 221 0.0 3.2 0.00 0.00 0.00 56 1014.8
20260507235837 12 256 0.0 3.2 0.00 0.00 0.00 52 1014.9
20260507235335 12 290 1.6 4.8 0.00 0.00 0.00 48 1014.9
20260507234831 12 269 0.0 4.8 0.00 0.00 0.00 51 1014.7
20260507234328 13 248 1.6 3.2 0.00 0.00 0.00 50 1014.7
20260507233824 13 298 0.0 3.2 0.00 0.00 0.00 46 1014.6
20260507233322 13 237 3.2 4.8 0.00 0.00 0.00 48 1014.7
20260507232820 13 225 1.6 3.2 0.00 0.00 0.00 46 1014.7
20260507232316 13 312 4.8 6.4 0.00 0.00 0.00 42 1014.6
20260507231813 13 289 3.2 3.2 0.00 0.00 0.00 44 1014.5
20260507231310 13 244 1.6 6.4 0.00 0.00 0.00 50 1014.6
20260507230806 14 294 3.2 4.8 0.00 0.00 0.00 44 1014.6
20260507230304 14 154 3.2 6.4 0.00 0.00 0.00 40 1014.8
20260507225803 14 236 1.6 3.2 0.00 0.00 0.00 43 1014.7
20260507225259 14 278 3.2 6.4 0.00 0.00 0.00 46 1014.6
20260507224755 15 209 6.4 6.4 0.00 0.00 0.00 42 1014.7
20260507224253 15 147 3.2 9.7 0.00 0.00 0.00 40 1014.6
20260507223749 15 211 3.2 4.8 0.00 0.00 0.00 40 1014.6
20260507223245 15 192 3.2 6.4 0.00 0.00 0.00 39 1014.7
20260507222742 15 301 3.2 6.4 0.00 0.00 0.00 39 1014.7
20260507222238 15 323 3.2 8.0 0.00 0.00 0.00 43 1014.9
20260507221736 15 136 1.6 6.4 0.00 0.00 0.00 39 1014.6
20260507221231 15 269 1.6 6.4 0.00 0.00 0.00 43 1014.7
20260507220728 15 235 0.0 6.4 0.00 0.00 0.00 39 1014.7